508  
ASUS44 KOUN 181610  
RWROK  
 
WEATHER ROUNDUP FOR OKLAHOMA  
NATIONAL WEATHER SERVICE NORMAN OK  
1100 AM CDT THU OCT 18 2018  
 
NOTE: "FAIR" INDICATES FEW OR NO CLOUDS BELOW 12,000 FEET WITH NO  
SIGNIFICANT WEATHER AND/OR S TO VISIBILITY
.  
 
OKZ001>007-009>012-014-015-017-181700-  
NORTHWEST OKLAHOMA AND THE PANHANDLE  
 
CITY SKY/WX TMP DP RH WIND PRES REMARKS
 
GAGE CLOUDY 58 44 60 SE12 30.45S  
GUYMON CLOUDY 55 42 61 SE9 30.43F  
ENID/WOODRING PTSUNNY 61 48 63 E7 30.46F  

 
 
OKZ016-021>023-033>039-044-045-181700-  
SOUTHWEST OKLAHOMA  
 
CITY SKY/WX TMP DP RH WIND PRES REMARKS
 
LAWTON/REGL LGT RAIN 57 54 89 E5 30.46S  
LAWTON/FT SILL LGT RAIN 56 55 96 E5 30.44S  
FREDERICK CLOUDY 56 51 84 E8 30.44R  
CLINTON CLOUDY 57 47 69 E10 30.46S  
HOBART CLOUDY 58 49 72 SE6 30.46R  
ALTUS AFB CLOUDY 58 48 70 SE3 30.46S  

 
 
OKZ018>020-024>031-181700-  
CENTRAL OKLAHOMA  
 
CITY SKY/WX TMP DP RH WIND PRES REMARKS
 
OKLAHOMA CITY PTSUNNY 59 46 62 E8 30.46S  
OKC/WILEY POST CLOUDY 60 46 59 SE9 30.46F  
OKC/TINKER AFB PTSUNNY 58 46 63 E6 30.45F  
STILLWATER CLOUDY 62 45 53 SE6 30.48S  
GUTHRIE CLOUDY 61 46 57 VRB7 30.47S  

 
 
OKZ008-013-054>072-181700-  
NORTHEAST OKLAHOMA  
 
CITY SKY/WX TMP DP RH WIND PRES REMARKS
 
TULSA CLOUDY 63 44 50 E6 30.47F  
TULSA/JONES CLOUDY 65 43 44 E8 30.48F  
PONCA CITY CLOUDY 61 43 51 E9 30.47F  
BARTLESVILLE CLOUDY 60 44 55 SE3 30.51S  
MUSKOGEE MOSUNNY 62 47 57 E9 30.49S  

 
 
OKZ032-040>043-046>053-073>077-181700-  
SOUTH CENTRAL/SOUTHEAST OKLAHOMA  
 
CITY SKY/WX TMP DP RH WIND PRES REMARKS
 
ARDMORE/DWNTWN CLOUDY 59 46 63 E6 30.45S  
MCALESTER CLOUDY 61 48 62 E6 30.46S  

 
 
 
 
CLICK HERE TO GO TO PREVIOUS BULLETINS.

The Nexlab OK Page Main Text Page